Weather History for KSNL - May, 2013

Change the Weather History Date:

Saturday, May 18, 2013

  Actual Average (KTIK) Record (KTIK)
Temperature  
Mean Temperature 80 °F -  
Max Temperature 91 °F 76 °F 89 °F (1998)
Min Temperature 68 °F 58 °F 46 °F (2002)
Cooling Degree Days 14    
Growing Degree Days 30 (Base 50)    
Moisture  
Dew Point 75 °F    
Average Humidity 86    
Maximum Humidity 100    
Minimum Humidity 59    
Precipitation  
Precipitation 0.44 in - - ()
Sea Level Pressure  
Sea Level Pressure 29.82 in    
Wind  
Wind Speed 12 mph (SSE)    
Max Wind Speed 29 mph    
Max Gust Speed 50 mph    
Visibility 6 miles    
Events Rain    
Averages and records for this station are not official NWS values.
T = Trace of Precipitation, MM = Missing Value Source: NWS Daily Summary

Daily Weather History Graph

Daily Weather History Graph

Search for Another Location

Airport or City:

Trip Planner

Search our weather history database for the weather conditions in past years. The results will help you decide how hot, cold, wet, or windy it might be!

Date:

Astronomy

May. 18, 2013 Rise Set
Actual Time 6:21 AM CDT 8:27 PM CDT
Civil Twilight 5:52 AM CDT 8:56 PM CDT
Nautical Twilight 5:17 AM CDT 9:31 PM CDT
Astronomical Twilight 4:40 AM CDT 10:08 PM CDT
Moon 1:46 PM CDT (5/18) 1:58 AM CDT (5/18)
Length of Visible Light 15h 03m
Length of Day
14h 06m
First Quarter, 55% of the Moon is Illuminated
May 18
First Quarter
May 24
Full
May 31
Last Quarter
Jun 8
New
Jun 16
First Quarter

Hourly Weather History & Observations

Time (CDT) Temp. Heat Index Dew Point Humidity Pressure Visibility Wind Dir Wind Speed Gust Speed Precip Events Conditions
12:15 AM 73.4 °F - 73.4 °F 100% 29.87 in 4.0 mi SE 9.2 mph - N/A   Clear
12:35 AM 73.4 °F - 73.4 °F 100% 29.86 in 4.0 mi SE 11.5 mph - N/A   Clear
12:55 AM 73.4 °F - 73.4 °F 100% 29.85 in 3.0 mi SE 9.2 mph - N/A   Scattered Clouds
1:15 AM 73.4 °F - 73.4 °F 100% 29.85 in 3.0 mi SE 9.2 mph - N/A   Scattered Clouds
1:35 AM 73.4 °F - 73.4 °F 100% 29.84 in 3.0 mi SE 9.2 mph - N/A   Scattered Clouds
1:55 AM 73.4 °F - 73.4 °F 100% 29.85 in 3.0 mi SSE 11.5 mph 16.1 mph N/A   Scattered Clouds
2:15 AM 73.4 °F - 73.4 °F 100% 29.85 in 3.0 mi SE 10.4 mph - N/A   Overcast
2:35 AM 73.4 °F - 73.4 °F 100% 29.84 in 3.0 mi SE 12.7 mph - N/A   Overcast
2:55 AM 73.4 °F - 73.4 °F 100% 29.85 in 3.0 mi SSE 10.4 mph - N/A   Overcast
3:15 AM 73.4 °F - 73.4 °F 100% 29.84 in 3.0 mi SSE 13.8 mph 19.6 mph N/A   Overcast
3:35 AM 73.4 °F - 73.4 °F 100% 29.84 in 3.0 mi SSE 12.7 mph - N/A   Overcast
3:55 AM 73.4 °F - 73.4 °F 100% 29.83 in 3.0 mi SSE 12.7 mph 18.4 mph N/A   Overcast
4:15 AM 73.4 °F - 73.4 °F 100% 29.83 in 3.0 mi SSE 10.4 mph - N/A   Overcast
4:35 AM 73.4 °F - 73.4 °F 100% 29.83 in 3.0 mi SSE 12.7 mph 18.4 mph N/A   Overcast
4:55 AM 73.4 °F - 73.4 °F 100% 29.83 in 3.0 mi SSE 11.5 mph 20.7 mph N/A   Overcast
5:15 AM 73.4 °F - 73.4 °F 100% 29.82 in 3.0 mi SSE 10.4 mph - N/A   Overcast
5:35 AM 73.4 °F - 73.4 °F 100% 29.82 in 3.0 mi SSE 11.5 mph - N/A   Overcast
5:55 AM 73.4 °F - 73.4 °F 100% 29.82 in 2.5 mi SSE 10.4 mph - N/A   Overcast
6:15 AM 73.4 °F - 73.4 °F 100% 29.83 in 3.0 mi SSE 9.2 mph - N/A   Overcast
6:35 AM 73.4 °F - 73.4 °F 100% 29.84 in 2.0 mi SSE 8.1 mph 16.1 mph N/A   Overcast
6:55 AM 77.0 °F - 77.0 °F 100% 29.84 in 2.5 mi South 11.5 mph - N/A   Overcast
7:15 AM 77.0 °F - 77.0 °F 100% 29.84 in 2.5 mi South 12.7 mph - N/A   Overcast
7:35 AM 77.0 °F - 77.0 °F 100% 29.85 in 2.0 mi South 12.7 mph 19.6 mph N/A   Overcast
7:55 AM 77.0 °F - 77.0 °F 100% 29.85 in 2.5 mi South 12.7 mph 19.6 mph N/A   Overcast
8:15 AM 77.0 °F - 77.0 °F 100% 29.85 in 2.5 mi South 12.7 mph 20.7 mph N/A   Overcast
8:35 AM 77.0 °F - 77.0 °F 100% 29.85 in 3.0 mi South 12.7 mph 19.6 mph N/A   Overcast
8:55 AM 77.0 °F - 77.0 °F 100% 29.86 in 4.0 mi South 15.0 mph - N/A   Mostly Cloudy
9:15 AM 78.8 °F - 77.0 °F 94% 29.87 in 4.0 mi South 12.7 mph 18.4 mph N/A   Overcast
9:35 AM 78.8 °F - 77.0 °F 94% 29.87 in 4.0 mi South 11.5 mph 16.1 mph N/A   Overcast
9:55 AM 78.8 °F - 77.0 °F 94% 29.87 in 4.0 mi South 10.4 mph - N/A   Mostly Cloudy
10:15 AM 78.8 °F - 77.0 °F 94% 29.87 in 4.0 mi South 9.2 mph 12.7 mph N/A   Scattered Clouds
10:35 AM 80.6 °F 88.1 °F 78.8 °F 94% 29.87 in 5.0 mi South 12.7 mph 16.1 mph N/A   Scattered Clouds
10:55 AM 80.6 °F 87.1 °F 77.0 °F 89% 29.87 in 5.0 mi South 10.4 mph - N/A   Mostly Cloudy
11:15 AM 82.4 °F 92.4 °F 78.8 °F 89% 29.87 in 5.0 mi South 12.7 mph 17.3 mph N/A   Scattered Clouds
11:35 AM 84.2 °F 96.1 °F 78.8 °F 84% 29.86 in 5.0 mi South 11.5 mph 16.1 mph N/A   Haze
11:55 AM 82.4 °F 90.9 °F 77.0 °F 84% 29.86 in 7.0 mi South 10.4 mph 18.4 mph N/A   Clear
12:15 PM 82.4 °F 92.4 °F 78.8 °F 89% 29.85 in 5.0 mi SSE 12.7 mph - N/A   Haze
12:35 PM 82.4 °F 90.9 °F 77.0 °F 84% 29.85 in 5.0 mi South 11.5 mph 18.4 mph N/A   Haze
12:55 PM 84.2 °F 94.1 °F 77.0 °F 79% 29.84 in 5.0 mi South 11.5 mph - N/A   Haze
1:15 PM 87.8 °F 102.5 °F 78.8 °F 75% 29.83 in 7.0 mi SSE 13.8 mph 19.6 mph N/A   Clear
1:35 PM 87.8 °F 102.5 °F 78.8 °F 75% 29.82 in 7.0 mi South 17.3 mph 21.9 mph N/A   Clear
2:15 PM 87.8 °F 99.7 °F 77.0 °F 70% 29.81 in 7.0 mi South 15.0 mph - N/A   Clear
2:35 PM 91.4 °F 107.2 °F 78.8 °F 66% 29.80 in 10.0 mi South 16.1 mph 19.6 mph N/A   Clear
2:55 PM 91.4 °F 105.1 °F 77.0 °F 63% 29.80 in 7.0 mi South 15.0 mph 23.0 mph N/A   Clear
3:15 PM 91.4 °F 105.1 °F 77.0 °F 63% 29.80 in 10.0 mi South 15.0 mph 21.9 mph N/A   Clear
3:35 PM 91.4 °F 102.5 °F 75.2 °F 59% 29.80 in 10.0 mi South 15.0 mph 21.9 mph N/A   Clear
3:55 PM 91.4 °F 105.1 °F 77.0 °F 63% 29.79 in 10.0 mi South 16.1 mph 20.7 mph N/A   Clear
4:15 PM 91.4 °F 102.5 °F 75.2 °F 59% 29.79 in 10.0 mi South 18.4 mph 21.9 mph N/A   Clear
4:35 PM 91.4 °F 102.5 °F 75.2 °F 59% 29.79 in 7.0 mi South 15.0 mph 23.0 mph N/A   Clear
5:15 PM 91.4 °F 102.5 °F 75.2 °F 59% 29.78 in 7.0 mi SSE 16.1 mph 19.6 mph N/A   Clear
5:35 PM 91.4 °F 105.1 °F 77.0 °F 63% 29.77 in 7.0 mi SSE 17.3 mph 24.2 mph N/A   Clear
5:55 PM 91.4 °F 107.2 °F 78.8 °F 66% 29.77 in 7.0 mi SSE 19.6 mph 28.8 mph N/A   Clear
6:15 PM 87.8 °F 97.6 °F 75.2 °F 66% 29.76 in 7.0 mi SSE 18.4 mph 26.5 mph N/A   Clear
6:35 PM 86.0 °F 95.1 °F 75.2 °F 70% 29.76 in 7.0 mi SSE 12.7 mph 20.7 mph N/A   Clear
6:55 PM 86.0 °F 93.4 °F 73.4 °F 66% 29.75 in 7.0 mi SSE 13.8 mph - N/A   Clear
7:15 PM 84.2 °F 90.9 °F 73.4 °F 70% 29.77 in 7.0 mi SSE 12.7 mph 19.6 mph N/A   Clear
7:35 PM 82.4 °F 88.2 °F 73.4 °F 74% 29.77 in 7.0 mi SSE 12.7 mph - N/A   Clear
7:55 PM 82.4 °F 89.5 °F 75.2 °F 79% 29.75 in 10.0 mi SSE 15.0 mph 18.4 mph N/A   Clear
8:15 PM 82.4 °F 88.2 °F 73.4 °F 74% 29.76 in 10.0 mi SSE 13.8 mph 23.0 mph N/A   Clear
8:35 PM 82.4 °F 88.2 °F 73.4 °F 74% 29.76 in 10.0 mi SSE 13.8 mph 20.7 mph N/A   Clear
8:55 PM 82.4 °F 88.2 °F 73.4 °F 74% 29.77 in 10.0 mi SSE 11.5 mph 18.4 mph N/A   Clear
9:15 PM 82.4 °F 89.5 °F 75.2 °F 79% 29.77 in 10.0 mi SSE 13.8 mph 18.4 mph N/A   Clear
9:35 PM 82.4 °F 89.5 °F 75.2 °F 79% 29.77 in 10.0 mi South 11.5 mph 20.7 mph N/A   Clear
9:55 PM 82.4 °F 89.5 °F 75.2 °F 79% 29.80 in 10.0 mi South 10.4 mph 16.1 mph N/A   Clear
10:15 PM 82.4 °F 89.5 °F 75.2 °F 79% 29.82 in 10.0 mi South 9.2 mph - N/A   Mostly Cloudy
10:35 PM 82.4 °F 89.5 °F 75.2 °F 79% 29.84 in 10.0 mi WSW 5.8 mph - N/A   Mostly Cloudy
11:15 PM 71.6 °F - 66.2 °F 83% 29.87 in 4.0 mi WNW 28.8 mph 49.5 mph 0.12 in Rain Heavy Rain
11:35 PM 68.0 °F - 68.0 °F 100% 29.90 in 5.0 mi WNW 11.5 mph 27.6 mph 0.36 in Rain Heavy Rain
11:55 PM 68.0 °F - 68.0 °F 100% 29.86 in 7.0 mi North 11.5 mph - 0.44 in Rain Heavy Rain